Flag for Portugal Weather past 2 weeks in Faro, Portugal

Now
59 °F

Sunny.


Feels Like: 58 °F
Forecast: N/A
Wind: 6 mph from South

Location: Faro / Aeroporto

Current Time: Jan 27, 2015 at 5:19:55 PM

Latest Report: Jan 27, 2015 at 4:30 PM


Visibility: 10 mi

Pressure: 30.33 "Hg

Humidity: 68%

Dew point: 48 °F

Location of FaroLocation

Historic Weather in Faro — Graph

°F

Faro temperature yesterday

Maximum temperature yesterday: 64 °F (at 11:00 AM)
Minimum temperature yesterday: 45 °F (at 4:30 AM)
Average temperature yesterday: 55 °F

Past Weeks' High & Low Weather Summary

 TemperatureHumidityPressure
High72 °F (Jan 25, 2:52 PM)100% (Jan 13, 8:00 AM)30.39 "Hg (Jan 13, 8:00 AM)
Low39 °F (Jan 25, 5:30 AM)31% (Jan 25, 2:52 PM)29.77 "Hg (Jan 18, 2:00 PM)
Average53 °F75%30.18 "Hg
* Reported Jan 12 4:00 PM — Jan 27 4:00 PM, Faro, Weather by CustomWeather, © 2014

Note: Actual official high and low records may vary slightly from our data, if they occured in-between our weather recording intervals... More about our weather records

Advertising

Faro weather history for previous 24 hours

 ConditionsComfort  
Time TempWeatherWind HumidityBarometerVisibility
4:00 PM
Jan 27
59 °FPassing clouds.6 mph68%30.33 "HgN/A
3:30 PM59 °FSunny.7 mph68%30.33 "Hg10 mi
3:00 PM59 °FSunny.7 mph68%30.33 "Hg10 mi
2:30 PM59 °FPassing clouds.7 mph72%30.33 "HgN/A
2:00 PM61 °FPassing clouds.7 mph68%30.33 "HgN/A
1:30 PM61 °FPassing clouds.6 mph59%30.36 "HgN/A
1:00 PM61 °FSunny.6 mph52%30.36 "Hg10 mi
12:30 PM63 °FPassing clouds.5 mph49%30.36 "HgN/A
12:00 PM61 °FPassing clouds.6 mph59%30.39 "HgN/A
11:30 AM61 °FPassing clouds.3 mph55%30.39 "HgN/A
11:00 AM61 °FPassing clouds.3 mph48%30.39 "HgN/A
10:51 AM61 °FPassing clouds.3 mph48%30.39 "HgN/A
10:30 AM57 °FSunny.3 mph63%30.39 "Hg10 mi
10:00 AM54 °FSunny.No wind67%30.39 "Hg10 mi
9:30 AM54 °FSunny.3 mph72%30.36 "Hg10 mi
9:00 AM50 °FSunny.2 mph76%30.36 "Hg10 mi
8:30 AM46 °FSunny.7 mph82%30.36 "Hg10 mi
8:02 AM46 °FPassing clouds.5 mph82%30.36 "HgN/A
8:00 AM43 °FPassing clouds.3 mph81%30.36 "HgN/A
7:30 AM45 °FPassing clouds.3 mph81%30.36 "HgN/A
7:00 AM41 °FPassing clouds.3 mph87%30.33 "HgN/A
6:30 AM43 °FClear.3 mph87%30.33 "Hg10 mi
6:00 AM43 °FClear.No wind87%30.33 "Hg10 mi
5:30 AM45 °FClear.No wind81%30.33 "Hg10 mi
5:00 AM45 °FClear.1 mph81%30.33 "Hg10 mi
4:30 AM45 °FClear.2 mph81%30.33 "Hg10 mi
4:00 AM46 °FClear.5 mph82%30.33 "Hg10 mi
3:48 AM46 °FClear.5 mph82%30.33 "Hg10 mi
3:00 AM45 °FClear.No wind81%30.33 "Hg10 mi
2:30 AM45 °FClear.2 mph87%30.33 "Hg10 mi
2:00 AM46 °FClear.2 mph82%30.33 "Hg10 mi
1:30 AM48 °FClear.1 mph76%30.33 "Hg10 mi
1:00 AM48 °FClear.2 mph76%30.36 "Hg10 mi
12:30 AM48 °FPassing clouds.3 mph76%30.36 "HgN/A
12:00 AM48 °FClear.3 mph76%30.36 "Hg10 mi
11:30 PM
Jan 26
48 °FPassing clouds.3 mph71%30.36 "HgN/A
11:00 PM50 °FClear.8 mph71%30.36 "Hg10 mi
10:30 PM52 °FClear.6 mph62%30.36 "Hg10 mi
10:03 PM54 °FClear.7 mph63%30.36 "Hg10 mi
10:00 PM50 °FClear.5 mph71%30.36 "Hg10 mi
9:30 PM50 °FClear.7 mph71%30.36 "Hg10 mi
9:00 PM50 °FClear.6 mph67%30.36 "Hg10 mi
8:30 PM55 °FClear.7 mph51%30.36 "Hg10 mi
8:00 PM59 °FClear.6 mph48%30.36 "Hg10 mi
7:30 PM57 °FClear.5 mph59%30.36 "Hg10 mi
7:00 PM59 °FClear.5 mph63%30.33 "Hg10 mi
6:30 PM57 °FClear.2 mph77%30.33 "Hg10 mi
6:00 PM59 °FClear.1 mph72%30.33 "Hg10 mi
5:30 PM61 °FSunny.3 mph68%30.30 "Hg10 mi
5:00 PM61 °FSunny.6 mph63%30.30 "Hg10 mi
Weather by CustomWeather, © 2014

See weather overviewHow to use our weather pages